sat.trackr.live / text

‹ back to catalog

STARLINK-37350

NORAD 68750 · 2026-082Y

PAYLOAD ACTIVE UNKNOWN

§ Identity

Operator
Country
US
Launch date
2026-04-15
Launch site
AFWTR
Launch vehicle
Mass (kg)
RCS (m²)

Purposes: comms

External: N2YO · Heavens-Above · Gunter

§ Orbital elements

Epoch: 2026-05-25T04:00:03.998880Z

Period
93.90 min
Inclination
97.2859°
Eccentricity
0.0001550
Mean motion
15.33464917 rev/d
Perigee alt
464.4 km
Apogee alt
466.5 km
Semi-major
6,843.6 km
B*
-5.1880e-4
RAAN
8.0266°
Arg perigee
93.1609°
Mean anomaly
30.6456°
Rev number
600

§ Raw data

STARLINK-373501 68750U 26082Y   26145.16671295 -.00016798  00000+0 -51880-3 0  99962 68750  97.2859   8.0266 0001550  93.1609  30.6456 15.33464917  6002

JSON: /api/v1/satellites/68750 · /tle

For live sub-satellite position, see the globe view (requires WebGL).

§ Visibility from observer

Set your observer location to see the next 7 days of passes ≥ 10°. The values pass through the URL so the page stays shareable.

No JS? Fill the form by hand. The geolocation button needs JavaScript.